TUBIN
1 48900U 21059X   25240.58090438  .00069012  00000-0  62883-3 0  9996
2 48900  97.6782  56.7462 0002395 284.3396  75.7598 15.67697038232545
LEDSAT
1 49069U 21073D   25240.28857544  .00161927  00000-0  11142-2 0  9994
2 49069  97.3810 325.8170 0007061 156.2889 203.8702 15.74133431223918
CUTE
1 49263U 21088D   25239.96661821  .00063550  00000-0  11104-2 0  9991
2 49263  97.4454 318.6966 0004974 310.2937  49.7879 15.50440815216711
TeikyoSat 4
1 49396U 21102B   25240.18844358  .00002498  00000-0  16642-3 0  9996
2 49396  97.4052 275.7348 0011521 214.2013 145.8475 15.07932578208549
Z-Sat
1 49399U 21102E   25240.55364837  .00005132  00000-0  27730-3 0  9997
2 49399  97.3741 279.6905 0017927 181.0478 179.0720 15.14993307209087
KOSEN 1
1 49402U 21102H   25240.55128991  .00009451  00000-0  42468-3 0  9994
2 49402  97.3640 283.7237 0016473 153.8911 206.3159 15.21231722209442
HO-113
1 50466U 21131B   25240.62082389  .00000672  00000-0  22335-3 0  9993
2 50466  98.5089 329.5808 0003082 249.0451 111.0408 14.40894362192979
SNUGLITE 2
1 52899U 22065F   25239.87907766  .00001492  00000-0  29783-3 0  9997
2 52899  98.1798  21.1340 0006838 217.2187 142.8542 14.63377075168083
UmKA 1 (RS40S)
1 57172U 23091G   25240.55304176  .00007992  00000-0  41647-3 0  9993
2 57172  97.5510 295.5304 0015420  62.1691 298.1102 15.16154502119594
CubeBel-2 (EU11S)
1 57175U 23091K   25240.55882565  .00013387  00000-0  61146-3 0  9990
2 57175  97.5507 297.1967 0013047  68.5871 291.6754 15.20633574119709
ENSO
1 58470U 23185J   25240.61710207  .00111598  00000-0  10939-2 0  9999
2 58470  97.3649 318.7932 0006346 154.0760 206.0819 15.65710011 97514
EIRSAT-1
1 58472U 23185L   25239.67952054  .00781410  29239-3  14265-2 0  9993
2 58472  97.3482 321.9424 0007544 237.6011 122.4539 16.01392532 97640
SONATE-2
1 59112U 24043Q   25239.92747900  .00025098  00000-0  66768-3 0  9990
2 59112  97.5232  12.8729 0010614 185.9781 174.1339 15.38157032 82528
MO-122
1 60209U 24125G   25240.56975004  .00025693  00000-0  66933-3 0  9995
2 60209  97.2705  91.4002 0016950 204.3234 155.7213 15.38703727 64247
GRBBeta
1 60237U 24128C   25240.17581588  .00006754  00000-0  49440-3 0  9997
2 60237  61.9914 161.9078 0056443  74.6485 286.0833 15.03234755 62168
Curium One
1 60242U 24128H   25240.33603956  .00011762  00000-0  78419-3 0  9998
2 60242  61.9808 158.3860 0056530  71.3579 289.3639 15.06159729 62249
ROBUSTA-3A
1 60243U 24128J   25240.36455201  .00011569  00000-0  78360-3 0  9990
2 60243  61.9878 159.3910 0055678  68.9692 291.7343 15.05629603 62234
CatSat
1 60246U 24125J   25240.55112490  .00026480  00000-0  82588-3 0  9996
2 60246  97.2518  89.6508 0041183 166.8384 193.3943 15.32355843 62224
HYPERVIEW-1G (RS66S)
1 61772U 24199AP  25240.56316129  .00030518  00000-0  80106-3 0  9999
2 61772  97.3402 109.3695 0010500 263.4240  96.5810 15.38530397 89246
AO-123
1 61781U 24199AY  25240.56264095  .00009189  00000-0  32482-3 0  9997
2 61781  97.3424 107.2973 0013606 274.6256  85.3430 15.29319912 89104
ZIMSAT 2
1 61783U 24199BA  25240.60837506  .00061856  00000-0  12403-2 0  9996
2 61783  97.3365 110.7715 0009379 252.9280 107.0942 15.46453685 92492
HADES-R (SO-124)
1 62690U 25009CK  25240.18442475  .00059388  00000-0  17630-2 0  9999
2 62690  97.4038 320.9481 0003773 168.8719 191.2608 15.34579401 34332
HYDRA-T
1 62692U 25009CM  25240.02273276  .00061542  00000-0  18039-2 0  9994
2 62692  97.4036 320.8586 0003679 163.7347 196.4015 15.34970717 34315
JINJUSat 1B
1 63210U 25052A   25239.98187122  .00016312  00000-0  71174-3 0  9991
2 63210  97.4295 133.1365 0005872  60.5491 299.6331 15.22211309 25320
NUSHSAT 1
1 63211U 25052B   25239.96060112  .00017713  00000-0  76320-3 0  9993
2 63211  97.4282 133.1427 0006095  65.3180 294.8691 15.22621897 25325
TEVEL2-4
1 63213U 25052D   25239.92575048  .00017377  00000-0  75727-3 0  9996
2 63213  97.4198 132.8585 0005457  78.2222 281.9627 15.22242315 25314
TEVEL2-5
1 63214U 25052E   25239.66472108  .00015804  00000-0  69003-3 0  9994
2 63214  97.4198 132.5968 0005454  78.7039 281.4810 15.22199447 25276
TEVEL2-6
1 63215U 25052F   25240.52352131  .00017945  00000-0  78309-3 0  9992
2 63215  97.4199 133.4372 0005514  77.7735 282.4119 15.22189336 25400
TEVEL2-1
1 63217U 25052H   25239.69187505  .00014372  00000-0  63306-3 0  9993
2 63217  97.4177 132.5097 0005861  87.6191 272.5716 15.21916428 25270
TEVEL2-3
1 63218U 25052J   25240.61249689  .00016802  00000-0  73851-3 0  9996
2 63218  97.4176 133.4196 0005812  86.2858 273.9042 15.21954847 25411
TEVEL2-2
1 63219U 25052K   25240.61301631  .00016605  00000-0  73017-3 0  9998
2 63219  97.4171 133.4179 0005832  86.3011 273.8892 15.21943996 25417
TEVEL2-9
1 63237U 25052AD  25240.61180295  .00015900  00000-0  72529-3 0  9993
2 63237  97.4238 133.2543 0010138  95.2104 265.0288 15.20664597 25396
TEVEL2-7
1 63238U 25052AE  25239.95973293  .00015312  00000-0  70070-3 0  9993
2 63238  97.4243 132.6019 0010247  96.7590 263.4811 15.20562525 25291
TEVEL2-8
1 63239U 25052AF  25239.70014517  .00014338  00000-0  65714-3 0  9998
2 63239  97.4246 132.3362 0010237  97.7108 262.5290 15.20523277 25256
HYDRA-W
1 63490U 25052BL  25239.67757345  .00037995  00000-0  14241-2 0  9998
2 63490  97.4181 133.1639 0013841  94.2277 266.0544 15.27065152 25310
HADES-ICM (SO-125)
1 63492U 25052BN  25239.98265104  .00040055  00000-0  15305-2 0  9994
2 63492  97.4189 133.3804 0013992  96.8540 263.4291 15.26413542 25357
